星链-3724 (STARLINK-3724 )

导读 | 星芒AI

STARLINK-3724 是 SpaceX Starlink 项目中的一颗低轨通信卫星,属于第三代星链卫星群。该卫星于2023年发射,旨在为全球用户提供高速、低延迟的互联网服务。它运行在约550公里高的近地轨道,配备先进相控阵天线和激光通信系统,以提升网络性能和卫星间通信效率。STARLINK-3724 与其他星链卫星协同工作,增强覆盖范围与连接稳定性,特别是在偏远和网络基础设施薄弱地区。

基本信息
目录编号:
52305
目录名称:
STARLINK-3724
国际标识:
2022-041AW
轨道中心:
EARTH
卫星名称:
星链-3724
卫星全名:
星链-3724 (STARLINK-3724 )
卫星状态:
在轨 (已飞行1340 天)
发射日期:
2022-04-21 UTC
国别 :
美国 (US)
星等 :
--
轨道信息
数据来源 国际轨道数据 AOE轨道数据
星历时间 2025-12-20T21:47:07+0800
10小时前
查看轨道信息
2025-12-14T10:00:00+0800
6天前
查看轨道信息
半长轴 6917.874km 6917.836km
偏心率 0.000132 0.0001342
轨道倾角 53.218° 53.215°
近地点辐角 90.485° 96.929°
升交点赤经 94.390° 123.526°
平近点角 269.629° 265.855°
近地点 538.823km 538.772km
远地点 540.651km 540.63km
周期 95.437分钟 95.437分钟
每日圈数 15.088423 15.088546
详细信息
固有亮度:
5
最大亮度:
2.5
卫星平台:
Starlink v1.5
覆盖范围:
全球
运营商:
太空探索技术公司
运营商所在国:
美国
制造商(研发单位):
太空探索技术公司
制造商所在国:
美国
使用方式:
暂无
卫星简介
星链(Starlink)计划是由太空探索技术公司(SpaceX)提出的一个巨型低轨卫星互联网星座项目,计划在2019年至2024年间在太空搭建由约1.2万颗卫星组成的“星链”网络,其中1584颗将部署在地球上空550千米处的近地轨道,并从2020年开始工作。该卫星仍在工作。
2D轨道图
3D轨道图
轨道高度分析图
轨道倾角分析图
轨道综合分析图
查看轨道综合分析图